Regional Weather Roundup
Issued by NWS

Home | Current Version | Previous Version | Graphics & Text | Print | Product List | Glossary On
Versions: 1 2 3 4 5 6 7 8 9 10 11 12 13 14 15 16 17 18 19 20 21 22 23 24 25 26 27 28 29 30 31 32 33 34 35 36 37 38 39 40 41 42 43 44 45 46 47 48 49
000
ASUS45 KSLC 211010
RWRUT

UTAH REGIONAL WEATHER ROUNDUP
NATIONAL WEATHER SERVICE SALT LAKE CITY UT
400 AM MDT THU MAY 21 2015

UTZ001>011-023>025-211100-

NORTHERN UTAH

CITY           SKY/WX    TMP DP  RH WIND       PRES   REMARKS
BRIGHAM CITY   MOCLDY    53  44  72 N8        30.02R
HILL AFB       PTCLDY    49  43  79 E16G28    30.02S
LOGAN          CLEAR     50  42  74 S15       30.03F
OGDEN          PTCLDY    49  43  80 CALM      30.00F
PROVO AIRPORT  CLEAR     46  41  81 N3        30.02S
SALT LAKE CITY CLEAR     49  46  90 SE5       30.01S
VERNAL         CLEAR     46  39  76 NW5       30.07S
WENDOVER       CLEAR     52  43  71 SW8       30.00R
HEBER CITY     CLEAR     36  34  93 CALM      30.09R
WEST JORDAN    CLEAR     46  46 100 CALM      30.02F

$$

UTZ012>022-026-027-211100-

SOUTHERN/CENTRAL UTAH

CITY           SKY/WX    TMP DP  RH WIND       PRES   REMARKS
BLANDING       CLOUDY    52  29  40 NE6       30.10R
BRYCE CANYON   MOCLDY    33  25  72 W7        30.09S WCI  27
CEDAR CITY     MOCLDY    40  31  70 CALM      29.99S
DELTA          MOCLDY    45  41  84 NE8       29.99S
HANKSVILLE     PTCLDY    48  32  53 NW5       29.97S
MILFORD        CLEAR     38  33  82 NW5       29.98S WCI  34
MOAB/CYNLANDS  CLEAR     53  39  59 SE9       29.95S
PRICE          CLEAR     49  35  58 NW5       30.03R
ST GEORGE      SUNNY     57  27  30 E8        29.90S

$$

REGIONAL REPORTS     COLORADO/ARIZONA

CITY           SKY/WX    TMP DP  RH WIND       PRES   REMARKS
CRAIG, CO      CLEAR     34  32  92 SW3       30.12S
GRAND JUNCTION CLEAR     48  40  73 E5        30.00S
RIFLE          CLEAR     41  36  82 S5        30.08R
MONTROSE       MOCLDY    48  40  73 CALM      30.07S
CORTEZ         CLEAR     48  40  73 W7        30.05S
PAGE, AZ       NOT AVBL
GRAND CANYON   CLOUDY    41  32  70 CALM      30.07S
KINGMAN        MOCLDY    59  25  27 SE10      29.89F
FLAGSTAFF      CLOUDY    41  31  67 CALM      30.09S

$$

REGIONAL REPORTS    NEVADA/IDAHO/WYOMING

CITY           SKY/WX    TMP DP  RH WIND       PRES   REMARKS
LAS VEGAS, NV  MOCLDY    67  25  20 S10       29.77F
ELY            PTCLDY    32  28  85 S7        30.03S WCI  26
ELKO           PTCLDY    45  40  82 CALM      29.98S
POCATELLO, ID  CLEAR     46  46 100 CALM      30.04R
BURLEY         CLOUDY    48  45  89 W3        29.98S
EVANSTON, WY   PTCLDY    39  37  92 E10       30.13S WCI  32
ROCK SPRINGS   LGT RAIN  38  36  92 NE13      30.15F WCI  30
KEMMERER       MOCLDY    37  36  93 S3        30.15S

$$



USA.gov is the U.S. government's official web portal to all federal, state and local government web resources and services.